Location: Central Falls
(41.8900°N, 71.3929°W)
Time: 10:54:54
(UTC+00:00)

Tiros 1 despin weight - Pass Details

Date: 09 December 2023
Orbit: 581 x 625 km, 48.2° (Epoch: 21 February)

Event Time Altitude Azimuth Distance (km) Brightness Sun altitude
Rises 23:04:50 0° 275° (W) 2,808 ? -19.8°
Reaches altitude 10° 23:07:15 10° 283° (WNW) 1,903 ? -20.3°
Maximum altitude 23:11:19 37° 352° (N) 907 ? -21.0°
Enters shadow 23:11:53 36° 11° (N) 936 ? -21.1°
